M0ZPG Weather Reports


time (UTC)temp
C
wind
direction
speed
KPH
gust
KPH
rain 1hr
cm
rain 24hr
cm
rain mn
cm
humidity
%
barometer
mb
20260902214503 18 237 3.2 14.5 0.00 0.00 0.00 87 1016.2
20260902213605 18 228 3.2 16.1 0.00 0.00 0.00 87 1016.3
20260902212916 19 214 3.2 9.7 0.00 0.00 0.00 87 1016.2
20260902211806 19 203 1.6 11.3 0.00 0.00 0.00 87 1016.3
20260902211115 19 233 1.6 14.5 0.00 0.00 0.00 87 1016.3
20260902210003 19 236 3.2 11.3 0.00 0.00 0.00 87 1016.3
20260902205403 19 223 3.2 14.5 0.00 0.00 0.00 87 1016.3
20260902204717 19 231 3.2 11.3 0.00 0.00 0.00 87 1016.3
20260902203605 19 230 3.2 12.9 0.00 0.00 0.00 87 1016.2
20260902202703 19 190 3.2 9.7 0.00 0.00 0.00 87 1016.1
20260902202019 19 215 3.2 16.1 0.00 0.00 0.00 87 1016.1
20260902200905 18 217 3.2 14.5 0.00 0.00 0.00 88 1016.4
20260902200003 18 215 3.2 9.7 0.00 0.00 0.00 88 1016.3
20260902195403 18 232 3.2 11.3 0.00 0.00 0.00 88 1016.3
20260902194507 18 221 3.2 14.5 0.00 0.00 0.00 88 1016.2
20260902193603 18 234 3.2 11.3 0.00 0.00 0.00 88 1016.4
20260902192917 18 248 1.6 11.3 0.00 0.00 0.00 88 1016.3
20260902191805 18 213 1.6 8.0 0.00 0.00 0.00 89 1016.2
20260902190903 18 185 1.6 9.7 0.00 0.00 0.00 88 1016.0
20260902190005 18 221 3.2 14.5 0.00 0.00 0.00 88 1016.0
20260902185405 18 210 3.2 14.5 0.00 0.00 0.00 88 1016.1
20260902184506 18 208 3.2 11.3 0.00 0.00 0.00 88 1016.2
20260902183603 18 174 3.2 11.3 0.00 0.00 0.00 88 1016.1
20260902182706 18 150 3.2 11.3 0.00 0.00 0.00 88 1016.3
20260902181804 18 153 3.2 9.7 0.00 0.00 0.00 88 1016.2
20260902181118 18 179 3.2 9.7 0.00 0.00 0.00 87 1016.1
20260902180005 18 142 3.2 14.5 0.00 0.00 0.00 87 1016.3
20260902175403 18 143 3.2 11.3 0.00 0.00 0.00 86 1016.3
20260902174503 18 169 3.2 9.7 0.00 0.00 0.00 86 1016.4
20260902173603 18 162 3.2 11.3 0.00 0.00 0.00 85 1016.5
20260902172705 18 167 4.8 12.9 0.00 0.00 0.00 85 1016.5
20260902172015 18 162 3.2 12.9 0.00 0.00 0.00 84 1016.5
20260902170905 18 160 4.8 14.5 0.00 0.00 0.00 82 1016.4
20260902170005 18 160 3.2 12.9 0.00 0.00 0.00 81 1016.5
20260902165403 18 165 6.4 20.9 0.00 0.00 0.00 81 1016.5
20260902164505 19 152 6.4 19.3 0.00 0.00 0.00 80 1016.7
20260902163605 19 151 4.8 16.1 0.00 0.00 0.00 78 1016.8
20260902162705 20 204 4.8 20.9 0.00 0.00 0.00 77 1016.9
20260902162016 20 201 4.8 20.9 0.00 0.00 0.00 76 1016.9
20260902160903 20 157 6.4 17.7 0.00 0.00 0.00 75 1016.9
20260902160007 20 192 4.8 19.3 0.00 0.00 0.00 73 1016.9
20260902155404 20 184 6.4 19.3 0.00 0.00 0.00 73 1017.1
20260902154507 20 150 6.4 16.1 0.00 0.00 0.00 71 1017.1
20260902153817 20 161 6.4 16.1 0.00 0.00 0.00 70 1017.0
20260902152705 21 223 4.8 16.1 0.00 0.00 0.00 69 1017.2
20260902151803 21 185 6.4 20.9 0.00 0.00 0.00 68 1017.2
20260902150903 20 157 4.8 12.9 0.00 0.00 0.00 69 1017.2
20260902150005 20 182 3.2 12.9 0.00 0.00 0.00 69 1017.3
20260902145405 20 214 3.2 12.9 0.00 0.00 0.00 69 1017.5
20260902144715 20 166 3.2 17.7 0.00 0.00 0.00 69 1017.6
20260902143818 20 207 4.8 14.5 0.00 0.00 0.00 69 1017.5
20260902142705 20 183 4.8 19.3 0.00 0.00 0.00 69 1017.7
20260902141805 20 203 3.2 11.3 0.00 0.00 0.00 69 1017.8
20260902140903 20 179 4.8 16.1 0.00 0.00 0.00 69 1017.8
20260902140005 20 212 4.8 14.5 0.00 0.00 0.00 69 1017.7
20260902135614 20 210 4.8 14.5 0.00 0.00 0.00 69 1017.9
20260902134505 20 177 4.8 19.3 0.00 0.00 0.00 68 1017.9
20260902133813 20 151 4.8 12.9 0.00 0.00 0.00 69 1018.0
20260902132704 20 255 4.8 17.7 0.00 0.00 0.00 69 1018.1
20260902132018 20 185 4.8 17.7 0.00 0.00 0.00 69 1018.1
20260902131115 20 158 4.8 16.1 0.00 0.00 0.00 70 1018.2
20260902130003 20 143 4.8 17.7 0.00 0.00 0.00 71 1018.0
20260902125405 20 153 4.8 17.7 0.00 0.00 0.00 72 1018.1
20260902124503 20 178 4.8 17.7 0.00 0.00 0.00 72 1018.2
20260902123603 20 183 6.4 22.5 0.00 0.00 0.00 73 1018.2
20260902122916 20 186 6.4 22.5 0.00 0.00 0.00 73 1018.3
20260902121805 20 190 4.8 12.9 0.00 0.00 0.00 72 1018.2
20260902120904 20 193 3.2 12.9 0.00 0.00 0.00 72 1018.2
20260902120004 20 179 3.2 8.0 0.00 0.00 0.00 76 1018.3
20260902115405 20 194 3.2 12.9 0.00 0.00 0.00 77 1018.4
20260902114505 20 180 3.2 14.5 0.00 0.00 0.00 78 1018.4
20260902113606 20 229 1.6 8.0 0.00 0.00 0.00 78 1018.5
20260902112705 19 181 1.6 11.3 0.00 0.00 0.00 80 1018.7
20260902111805 19 150 1.6 8.0 0.00 0.00 0.00 80 1018.9
20260902110905 18 156 1.6 8.0 0.00 0.00 0.00 81 1019.0
20260902110005 18 171 1.6 6.4 0.00 0.00 0.00 83 1019.1
20260902105405 18 248 1.6 9.7 0.00 0.00 0.00 84 1019.3
20260902104503 17 200 3.2 11.3 0.00 0.00 0.00 84 1019.5
20260902103605 18 171 3.2 12.9 0.00 0.00 0.00 85 1019.5
20260902102703 18 199 1.6 12.9 0.00 0.00 0.00 83 1019.5
20260902101806 18 169 1.6 8.0 0.00 0.00 0.00 82 1019.5
20260902101117 18 238 1.6 11.3 0.00 0.00 0.00 80 1019.6
20260902100005 18 210 1.6 6.4 0.00 0.00 0.00 80 1019.5
20260902095616 18 222 1.6 11.3 0.00 0.00 0.00 81 1019.5
20260902094506 18 209 1.6 9.7 0.00 0.00 0.00 80 1019.4
20260902093816 18 206 1.6 9.7 0.00 0.00 0.00 80 1019.4
20260902092703 18 225 1.6 4.8 0.00 0.00 0.00 81 1019.5
20260902091806 18 236 1.6 8.0 0.00 0.00 0.00 81 1019.7
20260902090905 18 193 1.6 9.7 0.00 0.00 0.00 79 1019.5
20260902090005 18 227 1.6 11.3 0.00 0.00 0.00 77 1019.5
20260902085404 18 240 1.6 11.3 0.00 0.00 0.00 77 1019.5
20260902084505 18 188 1.6 9.7 0.00 0.00 0.00 77 1019.4
20260902083603 18 147 1.6 6.4 0.00 0.00 0.00 77 1019.3
20260902082703 18 233 1.6 9.7 0.00 0.00 0.00 77 1019.2
20260902081805 18 262 1.6 12.9 0.00 0.00 0.00 79 1019.2
20260902080904 18 261 1.6 6.4 0.00 0.00 0.00 80 1019.1
20260902080008 17 234 1.6 6.4 0.00 0.00 0.00 81 1019.1
20260902075617 17 251 1.6 6.4 0.00 0.00 0.00 81 1019.1
20260902074504 17 234 1.6 11.3 0.00 0.00 0.00 82 1018.9
20260902073606 17 184 1.6 9.7 0.00 0.00 0.00 83 1018.8
20260902072705 17 204 1.6 14.5 0.00 0.00 0.00 83 1019.0
20260902071804 17 239 0.0 8.0 0.00 0.00 0.00 84 1019.0
20260902071114 17 197 0.0 8.0 0.00 0.00 0.00 84 1019.0
20260902070216 16 223 0.0 4.8 0.00 0.00 0.00 85 1018.8
20260902065405 16 213 0.0 3.2 0.00 0.00 0.00 84 1018.8
20260902064506 16 220 0.0 3.2 0.00 0.00 0.00 85 1018.7
20260902063603 16 222 0.0 3.2 0.00 0.00 0.00 85 1018.7
20260902062705 16 226 0.0 1.6 0.00 0.00 0.00 85 1018.8
20260902061805 15 226 0.0 3.2 0.00 0.00 0.00 85 1018.8
20260902060906 15 226 0.0 1.6 0.00 0.00 0.00 85 1018.8
20260902060005 15 0 0.0 0.0 0.00 0.00 0.00 85 1018.8
20260902055406 15 0 0.0 0.0 0.00 0.00 0.00 85 1018.6
20260902054503 15 226 0.0 1.6 0.00 0.00 0.00 84 1018.5
20260902053603 15 0 0.0 0.0 0.00 0.00 0.00 84 1018.5
20260902052916 15 226 0.0 1.6 0.00 0.00 0.00 84 1018.5
20260902052013 15 0 0.0 0.0 0.00 0.00 0.00 84 1018.5
20260902050904 15 226 0.0 1.6 0.00 0.00 0.00 84 1018.6
20260902050007 15 0 0.0 0.0 0.00 0.00 0.00 84 1018.6
20260902045405 15 226 0.0 1.6 0.00 0.00 0.00 84 1018.5
20260902044504 15 226 0.0 1.6 0.00 0.00 0.00 84 1018.7
20260902043603 15 0 0.0 0.0 0.00 0.00 0.00 83 1018.6
20260902042708 16 226 0.0 1.6 0.00 0.00 0.00 83 1018.6
20260902041805 16 0 0.0 0.0 0.00 0.00 0.00 83 1018.6
20260902040903 16 0 0.0 0.0 0.00 0.00 0.00 83 1018.7
20260902040006 16 0 0.0 0.0 0.00 0.00 0.00 83 1018.7
20260902035406 16 0 0.0 0.0 0.00 0.00 0.00 83 1018.6
20260902034503 16 0 0.0 0.0 0.00 0.00 0.00 83 1018.7
20260902033605 16 226 0.0 1.6 0.00 0.00 0.00 82 1018.7
20260902032705 16 226 0.0 1.6 0.00 0.00 0.00 82 1018.7
20260902031803 16 226 0.0 1.6 0.00 0.00 0.00 82 1018.5
20260902030903 16 226 0.0 1.6 0.00 0.00 0.00 81 1018.6
20260902030219 16 226 0.0 1.6 0.00 0.00 0.00 81 1018.7
20260902025615 16 226 0.0 1.6 0.00 0.00 0.00 81 1018.7
20260902024506 16 226 0.0 3.2 0.00 0.00 0.00 81 1018.7
20260902023815 16 227 0.0 1.6 0.00 0.00 0.00 81 1018.7
20260902022704 16 228 0.0 1.6 0.00 0.00 0.00 80 1018.8
20260902021805 16 228 0.0 3.2 0.00 0.00 0.00 80 1018.8
20260902020906 16 228 0.0 1.6 0.00 0.00 0.00 80 1018.8
20260902020215 16 230 0.0 3.2 0.00 0.00 0.00 79 1018.9
20260902015403 16 235 0.0 1.6 0.00 0.00 0.00 79 1018.9
20260902014505 16 235 0.0 1.6 0.00 0.00 0.00 79 1019.0
20260902013603 16 236 0.0 3.2 0.00 0.00 0.00 79 1019.1
20260902012918 16 262 0.0 3.2 0.00 0.00 0.00 79 1019.2
20260902011803 16 240 0.0 6.4 0.00 0.00 0.00 79 1019.1
20260902011118 16 208 0.0 6.4 0.00 0.00 0.00 79 1019.1
20260902010003 16 185 0.0 1.6 0.00 0.00 0.00 79 1019.2
20260902005617 16 185 0.0 1.6 0.00 0.00 0.00 79 1019.2
20260902004503 16 185 0.0 1.6 0.00 0.00 0.00 79 1019.3
20260902003605 16 185 0.0 1.6 0.00 0.00 0.00 79 1019.3
20260902002705 16 185 0.0 1.6 0.00 0.00 0.00 78 1019.3
20260902001804 16 185 0.0 1.6 0.00 0.00 0.00 78 1019.4
20260902000906 16 185 0.0 1.6 0.00 0.00 0.00 78 1019.3
20260902000004 16 185 0.0 3.2 0.00 0.00 0.00 77 1019.3
20260901235617 16 185 0.0 3.2 0.00 0.00 0.00 77 1019.5
20260901234503 16 185 0.0 1.6 0.00 0.00 0.00 77 1019.4
20260901233605 16 185 0.0 1.6 0.00 0.00 0.00 77 1019.5
20260901232703 16 184 0.0 3.2 0.00 0.00 0.00 76 1019.5
20260901231805 17 0 0.0 0.0 0.00 0.00 0.00 76 1019.5
20260901230906 17 184 0.0 1.6 0.00 0.00 0.00 75 1019.4
20260901230019 17 184 0.0 1.6 0.00 0.00 0.00 75 1019.5
20260901225403 17 184 0.0 1.6 0.00 0.00 0.00 75 1019.5
20260901224505 17 186 0.0 3.2 0.00 0.00 0.00 75 1019.5
20260901223603 17 185 0.0 4.8 0.00 0.00 0.00 74 1019.6
20260901222705 17 185 0.0 3.2 0.00 0.00 0.00 74 1019.7
20260901221803 17 185 0.0 3.2 0.00 0.00 0.00 74 1019.6
20260901220904 17 185 0.0 3.2 0.00 0.00 0.00 74 1019.7
20260901220005 17 184 0.0 1.6 0.00 0.00 0.00 73 1019.6
20260901215403 17 184 0.0 3.2 0.00 0.00 0.00 73 1019.6